#timestamp,LO_Frequency,Hit,StdDev 
1455670815.6,286046998.2,N
1455670835.4,286047003.1,N
1455670855.2,286047001.6,N
1455670875.1,286047001.7,N
1455670876.0,286047001.7,N
1455670895.8,286047001.9,N
1455670915.6,286047001.4,N
1455670935.5,286047001.0,N
1455670955.3,286047000.5,N
1455670975.1,286046999.9,N
1455670995.9,286046999.6,N
1455671015.7,286046996.3,N
1455671035.5,286046994.2,N
1455671055.4,286046995.1,N
1455671075.2,286046999.1,N
1455671095.0,286046998.7,N
1455671095.9,286046998.7,N
1455671115.8,286046996.7,N
1455671135.6,286046997.7,N
1455671155.4,286046997.4,N
1455671175.2,286046995.5,N
1455671195.1,286046994.6,N
1455671196.0,286046994.6,N
1455671215.8,286046996.2,N
1455671235.6,286046997.6,N
1455671255.5,286046997.9,N
1455671275.3,286046996.0,N
1455671295.1,286046995.7,N
1455671315.9,286046996.3,N
1455671335.7,286046997.5,N
1455671355.5,286046996.3,N
1455671375.4,286046992.5,N
1455671395.2,286046994.0,N
1455671415.0,286046994.1,N
1455671415.9,286046994.1,N
1455671435.8,286046990.8,Y
1455671455.6,286046990.3,P
1455671475.4,286046991.5,N
1455671495.3,286046989.8,P
1455671515.1,286046985.3,Y
1455671535.8,286046995.6,P
1455671555.7,286046993.4,P
1455671575.5,286046994.2,P
1455671595.3,286046990.1,Y
1455671615.2,286046997.0,P
1455671635.9,286046995.7,N
1455671655.7,286046997.7,N
1455671675.6,286046995.4,Y
1455671695.4,286047000.0,P
1455671715.2,286047001.1,N
1455671735.1,286046998.0,N
1455671736.0,286046998.0,N
1455671755.8,286046997.0,N
1455671775.6,286046996.0,N
1455671795.5,286046993.9,Y
1455671815.3,286046994.9,P
1455671835.1,286046995.1,P
1455671855.9,286046998.8,N
1455671875.7,286046998.4,N
1455671895.5,286046996.5,N
1455671915.4,286047002.2,N
1455671935.2,286046999.9,N
1455671955.0,286046999.0,N
1455671955.9,286046999.0,N
1455671975.7,286046997.7,N
1455671995.6,286046996.7,N
1455672015.4,286047000.5,N
1455672035.2,286046999.9,N
1455672055.1,286047002.4,N
1455672056.0,286047002.4,N
1455672075.8,286047000.1,N
1455672095.6,286047000.5,N
1455672115.5,286046999.4,N
1455672135.3,286046999.8,N
1455672155.1,286047002.1,N
1455672175.9,286047001.6,N
1455672195.7,286047002.7,N
1455672215.5,286047000.8,N
1455672235.4,286047003.4,N
1455672255.2,286047007.5,Y
1455672275.0,286047007.4,P
1455672275.9,286047007.4,N
1455672295.8,286047006.3,N
1455672315.6,286047010.4,Y
1455672335.4,286047007.2,P
1455672355.3,286047007.3,P
1455672375.1,286047008.3,P
1455672376.0,286047008.3,Y
1455672395.8,286047005.7,P
1455672415.7,286047003.5,P
1455672435.5,286047004.4,P
1455672455.3,286047001.8,N
1455672475.2,286047002.6,N
1455672495.9,286047002.8,N
1455672515.7,286047004.2,N
1455672535.6,286047004.5,N
1455672555.4,286047005.5,Y
1455672575.2,286047002.3,P
1455672595.1,286046999.0,N
1455672596.0,286046999.0,N
1455672615.8,286046999.1,N
1455672635.6,286046999.4,N
1455672655.4,286046997.5,N
1455672675.3,286046993.4,Y
1455672695.1,286046997.9,P
1455672715.9,286047001.1,N
1455672735.7,286047001.5,N
1455672755.5,286047002.2,N
1455672775.3,286047004.0,N
1455672795.2,286047003.4,N
1455672815.0,286047000.7,N
1455672815.9,286047000.7,N
1455672835.7,286047002.8,N
1455672855.6,286047002.7,N
1455672875.4,286047000.3,N
1455672895.2,286046995.4,N
1455672915.1,286046993.3,Y
1455672916.0,286046993.3,P
1455672935.8,286046995.5,N
1455672955.6,286046991.7,N
1455672975.5,286046991.7,N
1455672995.3,286046991.0,N
1455673015.1,286046991.7,N
1455673035.9,286046990.2,N
1455673055.7,286046993.0,N
1455673075.5,286046994.2,N
1455673095.3,286046996.1,N
1455673115.2,286046995.4,N
1455673135.0,286046994.2,N
1455673135.9,286046994.2,N
1455673155.7,286046996.0,N
1455673175.6,286046993.4,N
1455673195.4,286046992.3,Y
1455673215.2,286046995.2,P
1455673235.1,286046999.0,N
1455673236.0,286046999.0,N
1455673255.8,286046999.3,N
1455673275.6,286046996.6,N
1455673295.5,286046999.3,N
1455673315.3,286047000.6,N
1455673335.1,286047002.0,N
1455673355.9,286047002.0,N
1455673375.7,286046999.7,N
1455673395.5,286046998.9,N
1455673415.4,286047000.2,N
1455673435.2,286047003.3,N
1455673455.0,286047005.7,N
1455673455.9,286047005.7,N
1455673475.8,286047001.8,N
1455673495.6,286047000.0,N
1455673515.4,286046998.5,N
1455673535.3,286046998.5,N
1455673555.1,286047001.2,N
1455673556.0,286047001.2,N
1455673575.8,286047001.1,N
1455673595.6,286047000.7,N
1455673615.5,286047002.4,N
1455673635.3,286046999.1,N
1455673655.1,286046997.0,N
1455673675.9,286046998.9,N
1455673695.7,286046999.1,N
1455673715.5,286046997.7,N
1455673735.4,286046996.8,N
1455673755.2,286046997.4,N
1455673775.0,286046998.0,N
1455673775.9,286046998.0,N
1455673795.8,286046995.1,N
1455673815.6,286046996.4,N
1455673835.4,286046995.6,N
1455673855.3,286046997.9,N
1455673875.1,286046996.6,N
1455673876.0,286046996.6,N
1455673895.8,286046997.9,N
1455673915.7,286046995.0,N
1455673935.5,286046996.2,N
1455673955.3,286046995.1,N
1455673975.1,286046996.8,N
1455673995.9,286047002.8,N
1455674015.7,286046996.6,N
1455674035.5,286046997.8,N
1455674055.4,286046997.3,N
1455674075.2,286046996.6,N
1455674095.0,286046995.2,N
1455674095.9,286046995.2,N
1455674115.8,286046995.0,N
1455674135.6,286046995.7,N
1455674155.4,286046999.6,N
1455674175.3,286046995.4,N
1455674195.1,286046995.2,N
1455674196.0,286046995.2,N
1455674215.8,286046997.4,N
1455674235.7,286046994.9,Y
1455674255.5,286046998.1,P
1455674275.3,286046998.2,N
1455674295.2,286047002.8,P
1455674315.9,286046998.6,N
1455674335.7,286046998.5,N
1455674355.6,286046998.6,N
1455674375.4,286046999.5,N
1455674395.2,286046998.9,N
1455670815.1,286047004.6,N
1455670835.8,286047004.2,N
1455670855.7,286047003.6,N
1455670875.5,286047003.6,N
1455670895.3,286047002.9,N
1455670915.2,286047002.7,N
1455670935.9,286047002.2,N
1455670955.7,286047000.1,N
1455670975.6,286047000.5,N
1455670995.4,286046998.6,N
1455671015.2,286046995.3,N
1455671035.0,286046999.2,N
1455671035.9,286046999.2,N
1455671055.8,286047000.4,N
1455671075.6,286046998.7,N
1455671095.4,286046998.1,N
1455671115.3,286046999.2,N
1455671135.1,286046995.0,N
1455671155.8,286046995.1,N
1455671175.7,286046995.6,N
1455671195.5,286046995.9,N
1455671215.3,286046993.3,N
1455671235.2,286046997.2,N
1455671255.9,286046997.6,N
1455671275.7,286046997.1,N
1455671295.6,286046994.6,N
1455671315.4,286046995.5,N
1455671335.2,286046995.3,N
1455671355.0,286046993.8,N
1455671356.0,286046993.8,N
1455671375.8,286046994.8,N
1455671395.6,286046992.4,N
1455671415.5,286046988.6,Y
1455671435.3,286046990.4,P
1455671455.1,286046992.2,N
1455671475.9,286046990.5,P
1455671495.7,286046991.5,N
1455671515.5,286046987.8,Y
1455671535.4,286046998.0,P
1455671555.2,286046996.0,N
1455671575.0,286046994.4,N
1455671575.9,286046994.4,N
1455671595.8,286046991.9,Y
1455671615.6,286046995.1,P
1455671635.4,286046997.5,P
1455671655.3,286046995.3,P
1455671675.1,286046996.1,Y
1455671695.8,286046998.7,P
1455671715.7,286046999.3,N
1455671735.5,286046997.3,N
1455671755.3,286046997.8,N
1455671775.2,286046999.1,N
1455671795.9,286046998.2,N
1455671815.7,286046997.6,N
1455671835.6,286046996.4,Y
1455671855.4,286046997.3,P
1455671875.2,286046996.8,P
1455671895.1,286046996.9,P
1455671896.0,286046996.9,Y
1455671915.8,286046999.5,P
1455671935.6,286046996.8,N
1455671955.5,286046997.1,N
1455671975.3,286046998.2,N
1455671995.1,286046999.9,N
1455672015.9,286046998.6,N
1455672035.7,286047001.5,N
1455672055.5,286047000.5,N
1455672075.4,286047000.9,N
1455672095.2,286047002.8,N
1455672115.0,286047002.0,N
1455672115.9,286047002.0,N
1455672135.8,286046998.1,N
1455672155.6,286047000.5,N
1455672175.4,286046999.8,N
1455672195.2,286047002.5,N
1455672215.1,286047002.7,N
1455672216.0,286047002.7,N
1455672235.8,286047001.8,N
1455672255.6,286047002.8,N
1455672275.5,286047002.0,N
1455672295.3,286046999.7,N
1455672315.1,286046999.9,N
1455672335.9,286047001.4,N
1455672355.7,286047003.0,N
1455672375.5,286047004.9,N
1455672395.4,286047007.3,Y
1455672415.2,286047007.2,P
1455672435.0,286047006.6,N
1455672435.9,286047006.6,N
1455672455.8,286047006.2,N
1455672475.6,286047008.3,Y
1455672495.4,286047005.5,P
1455672515.3,286047005.9,P
1455672535.1,286047005.0,P
1455672536.0,286047005.0,Y
1455672555.8,286047000.1,P
1455672575.7,286047000.1,N
1455672595.5,286047002.3,N
1455672615.3,286047001.7,N
1455672635.2,286047004.3,N
1455672655.9,286047005.3,N
1455672675.7,286047005.2,N
1455672695.5,286047003.7,N
1455672715.4,286047005.1,N
1455672735.2,286047008.9,Y
1455672755.0,286047005.3,P
1455672756.0,286047005.3,P
1455672775.8,286047004.5,P
1455672795.6,286047007.2,Y
1455672815.5,286047001.9,P
1455672835.3,286047005.4,P
1455672855.1,286047005.3,P
1455672875.9,286047006.8,Y
1455672895.7,286047000.7,P
1455672915.5,286047002.4,N
1455672935.4,286047001.4,N
1455672955.2,286047003.7,N
1455672975.0,286047003.6,N
1455672975.9,286047003.6,N
1455672995.8,286047005.2,Y
1455673015.6,286047001.4,P
1455673035.4,286047000.3,N
1455673055.2,286046997.0,N
1455673075.1,286046996.5,N
1455673076.0,286046996.5,N
1455673095.8,286046998.9,N
1455673115.6,286047001.0,N
1455673135.5,286046996.6,N
1455673155.3,286046997.4,N
1455673175.1,286046994.4,N
1455673195.9,286046990.6,Y
1455673215.7,286046988.7,P
1455673235.5,286046988.2,N
1455673255.4,286046986.5,N
1455673275.2,286046983.7,Y
1455673295.0,286046995.7,P
1455673295.9,286046995.7,N
1455673315.8,286046995.4,N
1455673335.6,286046997.3,N
1455673355.4,286046999.6,N
1455673375.3,286046998.9,N
1455673395.1,286046998.1,N
1455673415.8,286047000.2,N
1455673435.7,286047004.1,N
1455673455.5,286047001.6,N
1455673475.3,286047005.3,N
1455673495.2,286047006.1,N
1455673515.9,286047009.2,N
1455673535.7,286047010.7,N
1455673555.6,286047011.8,N
1455673575.4,286047011.3,N
1455673595.2,286047013.8,N
1455673615.0,286047015.6,N
1455673615.9,286047015.6,N
1455673635.8,286047014.7,N
1455673655.6,286047016.0,N
1455673675.4,286047016.2,N
1455673695.3,286047020.4,N
1455673715.1,286047018.2,N
1455673735.8,286047018.5,N
1455673755.7,286047017.0,N
1455673775.5,286047012.7,N
1455673795.3,286047013.5,N
1455673815.2,286047012.9,N
1455673835.9,286047016.6,N
1455673855.7,286047017.8,N
1455673875.6,286047017.4,N
1455673895.4,286047016.2,N
1455673915.2,286047017.0,N
1455673935.0,286047017.2,N
1455673936.0,286047017.2,N
1455673955.8,286047014.4,N
1455673975.6,286047017.2,Y
1455673995.5,286047001.9,P
1455674015.3,286047000.3,N
1455674035.1,286047000.7,N
1455674055.8,286046999.3,N
1455674075.7,286046998.6,N
1455674095.5,286046999.1,N
1455674115.3,286046994.2,N
1455674135.2,286046997.4,N
1455674155.9,286046998.4,N
1455674175.7,286046995.4,N
1455674195.6,286046995.5,N
1455674215.4,286046997.9,N
1455674235.2,286046994.4,N
1455674255.1,286046994.0,N
1455674256.0,286046994.0,N
1455674275.8,286046994.1,N
1455674295.6,286046997.5,N
1455674315.5,286046997.7,N
1455674335.3,286046997.6,N
1455674355.1,286046995.6,N
1455674375.8,286046996.1,N
1455674395.7,286046992.0,N
